#timestamp,LO_Frequency,Hit,StdDev 
1505919615.6,286047000.7,N
1505919635.5,286046995.5,N
1505919655.3,286046997.5,N
1505919675.1,286046995.3,N
1505919695.9,286046995.5,N
1505919715.7,286046995.3,N
1505919735.5,286046995.8,N
1505919755.4,286046993.6,N
1505919775.2,286046996.2,N
1505919795.0,286046995.0,N
1505919795.9,286046995.0,N
1505919815.8,286046996.7,N
1505919835.6,286046997.5,N
1505919855.4,286047001.2,N
1505919875.3,286046999.9,N
1505919895.1,286047001.3,N
1505919896.0,286047001.3,N
1505919915.8,286047002.0,N
1505919935.7,286047003.1,N
1505919955.5,286047007.1,N
1505919975.3,286047001.4,N
1505919995.1,286046998.9,N
1505920015.9,286046997.3,N
1505920035.7,286047000.7,N
1505920055.5,286046998.7,N
1505920075.4,286046995.0,N
1505920095.2,286046995.1,N
1505920115.0,286046996.4,N
1505920115.9,286046996.4,N
1505920135.8,286046995.8,N
1505920155.6,286046998.0,N
1505920175.4,286046999.2,N
1505920195.3,286046996.8,N
1505920215.1,286046997.9,N
1505920216.0,286046997.9,N
1505920235.8,286046992.0,N
1505920255.7,286046993.9,N
1505920275.5,286046992.2,N
1505920295.3,286046995.0,N
1505920315.2,286046995.7,N
1505920335.9,286046993.5,N
1505920355.7,286046996.8,N
1505920375.5,286046992.3,N
1505920395.4,286046990.8,N
1505920415.2,286046989.0,Y
1505920435.0,286046994.6,P
1505920436.0,286046994.6,P
1505920455.8,286046994.0,P
1505920475.6,286046997.6,N
1505920495.5,286046994.7,Y
1505920515.3,286046995.3,P
1505920535.1,286046998.5,P
1505920555.8,286046997.4,N
1505920575.7,286047000.5,N
1505920595.5,286047002.5,N
1505920615.3,286047000.7,N
1505920635.2,286047006.7,N
1505920655.9,286047004.6,N
1505920675.7,286047002.0,N
1505920695.6,286046999.9,N
1505920715.4,286047001.5,N
1505920735.2,286046998.3,N
1505920755.1,286047001.0,N
1505920756.0,286047001.0,N
1505920775.8,286047002.8,N
1505920795.6,286046998.1,N
1505920815.5,286046995.1,N
1505920835.3,286046997.4,N
1505920855.1,286046999.5,N
1505920875.8,286046999.4,N
1505920895.7,286046995.5,N
1505920915.5,286046997.3,N
1505920935.3,286047000.7,N
1505920955.2,286047000.3,N
1505920975.9,286047001.5,N
1505920995.7,286047001.6,N
1505921015.6,286047002.5,N
1505921035.4,286047004.9,N
1505921055.2,286047005.6,N
1505921075.1,286046998.2,N
1505921076.0,286046998.2,N
1505921095.8,286046997.3,N
1505921115.6,286046996.4,N
1505921135.5,286046993.8,N
1505921155.3,286046992.8,N
1505921175.1,286046989.0,Y
1505921195.9,286046993.4,P
1505921215.7,286046998.6,N
1505921235.5,286046998.6,N
1505921255.3,286046998.9,N
1505921275.2,286046996.5,N
1505921295.0,286046995.3,N
1505921295.9,286046995.3,N
1505921315.7,286046999.6,N
1505921335.6,286047000.5,N
1505921355.4,286047000.7,N
1505921375.2,286046999.0,N
1505921395.1,286046996.0,N
1505921396.0,286046996.0,N
1505921415.8,286046996.2,N
1505921435.6,286046995.5,N
1505921455.5,286046999.6,N
1505921475.3,286046995.4,N
1505921495.1,286046993.9,N
1505921515.9,286046997.9,N
1505921535.7,286046996.3,N
1505921555.5,286046995.0,N
1505921575.4,286046994.9,N
1505921595.2,286046997.5,N
1505921615.0,286046992.4,Y
1505921615.9,286046992.4,P
1505921635.8,286046996.9,N
1505921655.6,286046998.1,N
1505921675.4,286047001.7,N
1505921695.2,286047002.3,N
1505921715.1,286047001.5,N
1505921716.0,286047001.5,N
1505921735.8,286046999.5,N
1505921755.6,286046998.5,N
1505921775.5,286047002.3,N
1505921795.3,286047001.5,N
1505921815.1,286047001.8,N
1505921835.9,286047000.2,N
1505921855.7,286047000.3,N
1505921875.5,286046998.2,N
1505921895.4,286047002.6,N
1505921915.2,286047002.7,N
1505921935.0,286047002.4,N
1505921935.9,286047002.4,N
1505921955.8,286047002.8,N
1505921975.6,286047002.7,N
1505921995.4,286047002.7,N
1505922015.3,286047000.2,N
1505922035.1,286047000.1,N
1505922036.0,286047000.1,N
1505922055.8,286047001.3,N
1505922075.6,286047000.0,N
1505922095.5,286047000.0,N
1505922115.3,286046997.0,N
1505922135.1,286046995.8,N
1505922155.9,286046995.0,N
1505922175.7,286046993.8,N
1505922195.5,286046992.4,Y
1505922215.4,286046996.4,P
1505922235.2,286046995.4,N
1505922255.0,286046997.8,N
1505922255.9,286046997.8,N
1505922275.8,286046996.4,N
1505922295.6,286046997.9,N
1505922315.4,286046997.5,N
1505922335.3,286046998.1,N
1505922355.1,286046997.2,N
1505922356.0,286046997.2,N
1505922375.8,286046998.7,N
1505922395.7,286047000.8,N
1505922415.5,286047000.8,N
1505922435.3,286046997.2,N
1505922455.2,286047000.6,N
1505922475.9,286047002.1,N
1505922495.7,286046997.5,N
1505922515.5,286046998.9,N
1505922535.4,286046997.1,N
1505922555.2,286046999.3,N
1505922575.0,286047002.7,N
1505922575.9,286047002.7,N
1505922595.8,286047000.1,N
1505922615.6,286046997.1,N
1505922635.4,286046995.4,N
1505922655.3,286046995.1,N
1505922675.1,286047000.5,N
1505922676.0,286047000.5,N
1505922695.8,286046997.1,N
1505922715.7,286046995.3,N
1505922735.5,286047000.6,N
1505922755.3,286047005.8,N
1505922775.2,286047003.4,N
1505922795.9,286047001.4,N
1505922815.7,286047000.7,N
1505922835.5,286046996.5,N
1505922855.4,286046997.5,N
1505922875.2,286046999.4,N
1505922895.0,286047001.1,N
1505922895.9,286047001.1,N
1505922915.8,286047001.1,N
1505922935.6,286047002.7,N
1505922955.4,286047003.1,N
1505922975.3,286047002.0,N
1505922995.1,286047001.9,N
1505923015.8,286047005.8,N
1505923035.7,286047005.0,N
1505923055.5,286047004.9,N
1505923075.3,286047005.2,N
1505923095.2,286047007.1,N
1505923115.9,286047007.3,N
1505923135.7,286047005.3,N
1505923155.6,286047005.6,N
1505923175.4,286047003.1,N
1505923195.2,286047005.9,N
